Location: Waco, TX
(31.5480°N, 97.1670°W)
Time: 22:54:18
(UTC-05:00)

ISS - Pass Details

Date: 24 April 2018
Orbit: 403 x 406 km, 51.6° (Epoch: 23 April)

Event Time Altitude Azimuth Distance (km) Brightness Sun altitude
Rises 07:15:48 0° 190° (S) 2,297 -0.2 4.4°
Reaches altitude 10° 07:18:23 10° 168° (SSE) 1,444 -1.0 5.0°
Maximum altitude 07:20:30 16° 127° (SE) 1,128 -0.9 5.4°
Drops below altitude 10° 07:22:37 10° 86° (E) 1,450 1.6 5.9°
Sets 07:25:14 0° 64° (ENE) 2,313 1.9 6.4°
